Location: North Evanston
(42.0634°N, 87.6976°W)
Time: 11:39:49
(UTC+00:00)

Vanguard 3 - Pass Details

Date: 10 May 2026
Orbit: 507 x 3204 km, 33.3° (Epoch: 11 June)

Event Time Altitude Azimuth Distance (km) Brightness Sun altitude
Rises 03:00:02 0° 277° (W) 6,044 12.4 -19.0°
Reaches altitude 10° 03:05:39 10° 266° (W) 4,515 11.4 -19.6°
Maximum altitude 03:13:43 22° 222° (SW) 2,806 9.8 -20.6°
Enters shadow 03:17:13 17° 190° (S) 2,736 9.5 -21.0°
Drops below altitude 10° 03:19:20 10° 174° (S) 2,991 - -21.3°
Sets 03:22:11 0° 158° (SSE) 3,611 - -21.6°
